アトラス彗星

C/2024 L5 ( ATLAS )

English version
Home page
Updated on February 9, 2025

---------------------------------------------------------------------

・ プロフィール

発見日 2024年6月14日
発見光度 17.6等
発見者 Asteroid Terrestrial-Impact Last Alert System (ATLAS) search program

・ 写真集

・ 軌道要素

Epoch 2024 Oct. 17.0 TT = JDT 2460600.5
T 2025 Mar. 10.47203 TT                                 Rudenko
q   3.4319184            (2000.0)            P               Q
z  -0.0108850      Peri.  290.52595     -0.86089027     -0.48561047
 +/-0.0000181      Node   139.16853     -0.33551816     +0.76616763
e   1.0373565      Incl.  166.57311     -0.38248597     +0.42091524
From 250 observations 2024 June 14-Sept. 25, mean residual 0".5.

・ 星図

・ 光度変化

        m1 = -0.7 + 5 logΔ + 25.0 log r

---------------------------------------------------------------------

軌道要素はM.P.E.C. 2024-T138に掲載されたものです。
星図はステラナビゲータ Ver.11 (アストロアーツ) で作成したものです。
光度グラフはComet for Windowsで作成したものです。

---------------------------------------------------------------------

Copyright(C) Seiichi Yoshida (comet@aerith.net). All rights reserved.